Powrót do katalogu

SL-19 DEB

AktywnyUNKNOWN
NORAD 23487·DEBRIS·🇷🇺 Russia

Wystrzelony Dec 26, 1994 z Baikonur Cosmodrome

Loading…

Następne Przeloty (najbliższe 24 godziny)

TLE

ŚwieżeSource: Space-Track

Epoka: Sep 14, 2026, 02:42 UTC

1 23487U 94085K   26257.11311527  .00000017  00000-0  16390-2 0  9992
2 23487  64.9376 135.2008 0167668 166.4376 347.6010 11.30419591309004

Śledź SL-19 DEB w czasie rzeczywistym z AllMySat

Download on the App Store